Temp_Advection
nan nan nan nan nan nan nan nan nan nan nan nan nan nan nan nan nan nan nan nan nan nan nan nan nan nan nan nan nan nan nan nan nan nan nan nan nan nan nan nan nan nan nan nan nan nan nan nan nan
nan -0 -1 -0 -0 1 0 -0 0 -0 -0 -0 -0 -0 -0 -1 -1 -1 -0 -0 -1 -1 -1 -0 0 -0 -0 -0 -0 -0 -0 -0 -0 -0 -0 -0 -0 0 0 -0 -0 -0 -0 0 0 0 0 0 nan
nan -1 -2 -0 0 -0 0 -0 1 -0 -0 -0 -0 -0 -1 -0 -0 -0 -0 -0 -1 -1 -1 -1 -0 -0 -0 -0 -0 -0 -0 -0 -0 -0 0 -0 -0 0 0 -0 -0 -0 -0 -0 0 0 0 0 nan
nan -1 -0 0 -0 0 0 1 0 -0 -0 0 -0 -1 -1 0 -0 -0 0 -0 -0 -1 -0 -1 -0 -0 -0 0 -0 -0 -0 -0 -0 -0 -0 0 0 -0 -0 -0 -0 0 -0 -0 -0 0 0 0 nan
nan -0 0 1 0 0 -0 -0 -0 0 0 -0 -0 -1 -1 0 0 -0 0 0 -0 -1 -0 0 -0 -0 -0 0 -0 0 0 -0 -0 -0 0 -0 0 0 -0 -0 -0 -0 -0 -0 -0 -0 0 0 nan
nan 0 0 1 0 0 -0 -0 0 0 -0 -0 -0 -2 -1 0 0 -0 0 0 -0 -1 -1 0 0 0 -0 0 0 0 0 -0 -0 -0 -0 -0 -0 -0 0 0 -0 0 -0 -0 -0 -0 -0 -0 nan
nan 0 -0 -0 0 0 -0 -0 0 0 -0 -1 -0 -2 -1 -0 0 -0 0 0 -0 -0 -1 -1 -0 0 0 0 0 0 0 0 0 -0 -0 -0 -0 -0 -0 -0 -0 -0 -0 0 -0 -0 -0 -0 nan
nan -2 -0 0 -3 -1 1 -0 -0 -0 -1 -0 -0 -0 -1 -1 0 -0 -0 0 0 -0 -1 -1 -1 -0 0 -0 0 -0 0 -0 0 0 0 -0 -0 0 -0 -0 0 -0 0 0 -0 -0 -0 0 nan
nan -0 0 -1 -3 -0 0 -1 -0 0 -0 -0 -0 -0 -1 -1 0 -0 -0 -0 0 0 -0 -0 -1 -1 -1 -0 0 0 0 0 0 0 0 0 0 -0 0 0 -0 -0 0 0 0 -0 -0 -0 nan
nan 1 1 0 1 -0 0 -1 -0 -0 -0 -0 -0 -0 -0 -0 -0 -0 -0 -0 -0 -0 -0 0 0 -0 -0 -0 0 -0 -0 -0 0 0 0 0 0 0 -0 -0 -0 0 0 0 -0 -0 0 0 nan
nan 0 -0 -0 -0 0 0 -0 0 -1 0 0 -1 -0 -0 -0 -0 -0 -0 -0 -0 -0 -0 -0 0 0 -0 -0 -0 -0 -0 -0 -0 -0 -0 -0 -0 0 -0 0 -0 -0 -0 0 0 -0 -0 -0 nan
nan -0 -0 -0 0 -0 -0 -0 -0 0 -0 0 -1 -0 -1 -0 -0 -0 -0 -0 -0 -0 -0 -0 0 1 0 0 -0 -0 0 -0 -0 -0 0 0 0 0 0 -0 0 -0 -0 0 -0 -0 0 -0 nan
nan -0 0 -0 0 0 -0 0 -0 -0 -0 -0 -0 -1 -1 -0 -0 -0 -0 -0 -0 -0 -0 -0 0 0 0 0 0 0 0 -0 0 0 0 0 0 -0 -0 0 -0 -0 -0 0 0 -0 0 0 nan
nan 0 0 -0 -0 -0 -0 -0 -0 -0 -0 -0 -0 -1 -1 -0 -0 -0 -0 -0 0 -0 -0 0 0 -0 0 0 0 0 0 -0 0 0 -0 0 -0 0 0 0 0 0 -0 -0 0 0 0 -0 nan
nan 0 0 -0 -0 0 0 0 -0 -0 -0 -0 -0 -0 -0 -0 -0 -0 0 -0 0 -0 0 0 -0 -0 -0 -0 -0 -0 -0 -0 0 0 -0 0 1 0 -0 -0 0 -0 -0 0 0 0 -0 -0 nan
nan -0 -0 0 0 -0 0 -0 0 -0 -0 -0 -0 -0 -0 -0 -0 0 0 0 -0 -0 0 0 -0 -0 -0 -0 -0 -0 -0 -0 0 0 0 -0 0 0 0 0 -0 0 0 0 0 -0 -0 -0 nan
nan -0 0 0 -0 -0 -0 0 -1 -0 -0 -0 -0 -0 -0 -0 -0 -0 -0 -0 -0 0 0 0 0 0 0 0 0 -0 -0 -0 -0 0 0 0 0 0 0 0 -0 0 0 0 0 -0 0 0 nan
nan 0 0 0 -0 0 -0 -0 -1 -0 -0 -0 -0 -1 -0 -0 -0 -0 -0 -0 0 -0 0 0 0 0 0 0 0 -0 -0 0 0 0 0 -0 -0 0 1 1 0 0 0 0 -0 -0 0 0 nan
nan 0 -0 -0 -0 0 -0 -0 -0 -1 -0 -0 -0 -0 -1 -1 -0 -0 -0 -0 -0 -0 -0 0 0 0 0 -0 0 -0 -0 0 0 -0 0 -0 -0 0 0 1 0 0 0 -0 -0 0 -0 -0 nan
nan -0 0 0 -0 -0 -0 -0 0 -0 -0 0 -0 -0 -1 -1 -1 -0 -0 -0 -0 -0 0 0 0 1 0 0 0 -0 -0 0 0 0 1 -0 -1 0 0 -0 0 0 0 0 -0 -0 0 -0 nan
nan 0 -0 -0 -0 1 2 -2 -3 -0 -0 -0 -0 -0 -0 -0 -0 -0 -0 -0 -0 -0 0 0 0 0 0 0 0 0 0 0 0 -0 -0 0 0 0 0 -0 -0 0 0 0 -0 -0 0 0 nan
nan 0 0 0 2 -0 -1 -1 -3 -0 -0 -0 -0 -0 -0 -0 -0 -1 -0 -0 -0 -0 -0 0 0 0 0 -0 -0 0 -0 -0 0 0 0 0 -0 -0 0 0 -0 -0 0 0 0 0 0 0 nan
nan -0 0 0 -0 2 -1 0 0 1 -0 -0 -1 -0 -0 -0 -0 -0 -0 -1 -0 -0 -0 -0 1 0 -1 -1 -0 0 -0 0 0 0 0 0 0 -0 0 -0 -0 -0 0 0 -0 -0 0 0 nan
nan 0 -0 -0 1 1 0 0 -2 -2 2 -0 -0 -0 -0 -0 0 -0 -0 -0 -0 -0 0 0 1 -1 -1 -0 0 1 1 1 0 0 0 0 -0 0 -0 -0 0 0 -0 0 0 -0 -0 0 nan
nan 0 0 0 0 -1 -2 -3 1 0 0 -0 -0 0 0 0 0 -0 0 0 0 0 0 1 0 -1 0 1 2 1 1 0 -0 -0 0 0 0 0 -0 -0 -0 -0 0 0 0 0 -0 -0 nan
nan 0 1 1 -0 -0 -2 -0 -0 -1 0 -0 -0 -0 0 0 0 1 0 0 0 0 0 1 1 1 2 2 1 0 0 0 0 0 -0 0 -0 0 0 -0 -0 -0 -0 -0 -0 -0 -0 -0 nan
nan -1 -0 0 0 0 0 0 0 -0 -0 -0 -0 -0 0 0 0 1 0 1 1 1 1 1 1 1 1 0 0 0 0 0 -0 0 -0 0 -0 0 -0 -0 -0 -0 0 0 0 -0 -0 -0 nan
nan 0 1 0 1 0 0 -1 1 0 1 0 -0 -0 -0 0 0 0 1 0 0 0 1 0 1 0 0 0 -0 -0 -0 -0 0 0 -0 -0 0 -0 0 -0 -0 0 0 -0 -0 -0 -0 -0 nan
nan 0 -0 1 -0 -1 0 -0 -1 0 -0 0 -0 -0 -0 -0 0 0 0 0 0 0 0 0 0 0 0 0 -0 -0 -0 -0 -0 -0 0 -0 0 0 -0 -0 -0 -0 -0 -0 -0 -0 -0 -0 nan
nan nan nan nan nan nan nan nan nan nan nan nan nan nan nan nan nan nan nan nan nan nan nan nan nan nan nan nan nan nan nan nan nan nan nan nan nan nan nan nan nan nan nan nan nan nan nan nan nan
Wind_Speed
8 5 3 5 5 4 9 13 14 8 14 14 9 11 15 18 15 10 23 21 22 21 20 20 18 17 16 14 13 12 11 10 10 9 8 7 7 7 8 9 9 9 10 10 11 10 8 9 9
5 6 6 5 2 6 5 17 13 8 12 11 11 5 11 16 12 23 21 22 20 20 18 18 18 16 15 13 12 12 11 10 10 9 9 9 8 7 5 6 6 8 9 10 10 9 9 9 10
6 9 15 4 2 9 6 5 12 11 6 5 6 9 12 9 15 18 23 23 21 19 17 18 18 16 15 13 12 10 10 9 10 9 9 8 8 8 8 8 7 7 6 8 9 7 9 8 10
9 13 11 1 9 10 12 13 10 11 5 6 3 14 10 10 14 19 23 22 20 18 18 19 18 15 13 11 10 9 8 8 8 8 7 7 8 8 7 8 8 5 6 8 6 7 8 8 8
11 6 2 8 16 7 9 11 4 4 10 7 4 13 13 10 11 22 23 21 20 21 15 19 17 14 11 10 9 8 8 8 9 8 8 8 7 6 6 7 6 6 6 6 7 6 6 7 7
14 1 3 8 12 10 7 9 7 7 11 6 6 14 7 10 18 22 21 20 19 17 16 16 16 13 10 9 8 8 9 9 8 8 8 8 7 5 6 6 5 4 5 6 5 5 5 5 5
17 1 9 6 13 11 9 7 12 5 10 14 3 13 11 17 23 22 21 19 18 16 16 14 13 12 11 9 8 8 7 8 8 7 7 6 5 5 5 4 4 3 3 2 2 3 3 4 5
11 11 7 10 20 9 6 12 3 10 15 8 3 9 16 23 24 22 20 19 18 16 14 13 11 10 10 7 8 8 7 7 6 6 6 5 4 3 3 2 2 3 3 3 4 4 5 6 7
11 3 4 12 18 5 3 13 3 3 9 10 6 3 27 27 24 22 21 19 18 16 14 14 13 10 11 9 7 8 7 7 6 5 4 3 3 3 4 3 5 5 4 5 6 8 8 9 10
9 5 12 10 10 3 6 11 3 8 4 7 9 14 25 27 25 24 22 21 19 17 15 15 13 10 9 8 7 6 4 4 5 6 8 8 6 6 5 6 6 6 7 8 8 9 9 11 12
5 7 7 9 11 7 5 11 7 12 0 12 15 18 23 26 24 23 21 20 19 18 16 15 15 12 9 9 7 6 7 6 5 8 9 7 6 6 7 4 9 10 8 10 9 10 10 11 15
4 6 8 4 5 2 2 9 3 4 10 4 14 18 23 24 23 22 21 19 18 18 17 15 14 14 11 9 8 10 10 7 6 9 9 8 8 8 6 8 9 9 8 10 11 11 15 17 12
1 4 1 1 3 2 1 2 3 2 2 7 14 19 22 23 22 21 19 18 18 17 16 15 14 14 12 12 8 9 10 9 7 9 8 10 8 8 7 10 10 11 11 12 12 13 15 18 15
7 4 2 1 2 2 9 2 4 3 4 10 16 18 20 21 21 20 19 18 17 15 15 15 14 13 13 11 11 13 9 9 12 12 14 11 8 10 10 12 13 13 13 14 12 14 12 15 16
2 10 6 6 4 2 8 4 2 7 7 13 16 16 17 20 21 20 20 18 16 14 14 14 14 13 12 12 10 8 10 9 9 12 16 15 15 11 16 16 16 15 15 16 15 14 14 14 15
12 11 3 8 3 3 7 10 8 9 8 12 16 16 16 18 21 19 19 18 16 15 14 14 12 12 12 11 11 10 9 10 10 11 12 13 11 9 12 18 18 17 15 13 17 14 12 13 16
14 2 7 8 4 2 5 2 11 11 10 12 14 17 18 18 20 19 19 18 18 16 15 14 14 13 14 17 13 11 11 13 11 11 13 17 15 15 16 12 12 15 16 17 20 18 15 15 14
10 3 6 3 6 8 7 7 14 13 11 10 13 18 19 20 20 20 19 19 17 17 16 14 14 15 15 14 14 13 13 14 13 12 13 18 10 15 23 20 13 12 15 15 15 17 15 18 17
7 8 8 2 2 5 9 6 5 16 15 13 12 16 20 20 21 20 20 19 18 17 16 16 16 16 15 14 16 14 14 15 16 17 22 21 13 16 16 17 15 10 12 12 13 16 15 16 13
13 3 10 6 2 7 9 7 10 14 17 16 16 14 16 19 22 21 21 21 20 19 18 18 18 18 17 15 16 16 14 13 13 13 14 16 15 13 13 11 8 10 13 12 12 14 13 14 11
14 7 4 5 8 11 10 15 18 13 19 18 18 17 17 18 19 20 23 22 21 21 21 20 20 18 18 17 15 16 17 18 15 19 21 16 13 14 13 10 8 9 11 13 13 13 14 13 11
9 11 7 10 12 7 27 7 14 15 15 16 19 19 18 18 19 20 21 21 22 22 22 22 20 19 18 19 17 16 14 12 11 11 10 11 11 12 14 10 10 9 10 12 12 12 13 13 11
11 7 13 12 15 18 17 2 9 8 15 15 16 22 20 22 21 19 22 21 21 21 21 21 21 20 19 19 16 16 14 11 12 9 12 12 13 10 8 8 5 9 9 10 11 11 13 15 14
10 12 17 15 14 3 11 18 8 10 7 8 9 19 21 23 23 22 20 20 21 20 20 20 19 22 18 17 15 16 12 12 9 7 7 9 12 6 5 3 8 9 10 10 9 11 12 14 13
11 15 11 6 3 5 18 16 9 8 7 7 9 5 10 20 22 21 22 22 21 21 21 21 20 23 18 17 15 13 12 10 7 9 7 11 4 4 9 8 12 10 11 12 12 13 12 11 9
14 17 14 10 6 7 13 5 4 10 10 7 8 11 9 11 20 22 23 22 22 21 21 21 20 20 16 14 11 11 11 5 4 6 7 2 3 2 6 7 7 6 7 6 7 8 9 9 10
17 16 16 16 18 10 9 9 14 7 8 11 11 8 9 10 13 18 20 22 21 21 22 21 19 14 11 10 10 9 8 8 6 7 6 1 2 2 7 5 6 7 6 5 6 7 7 8 7
22 10 12 11 14 11 6 14 6 12 9 6 9 8 10 11 13 16 16 17 17 19 18 17 15 11 11 11 9 8 7 6 6 2 4 4 7 0 4 5 7 8 7 7 8 6 8 9 9
13 13 11 13 6 9 6 3 8 6 11 3 8 10 13 15 16 17 16 16 16 16 16 15 13 14 13 12 12 9 8 7 6 4 3 4 4 2 4 4 4 4 4 5 7 7 7 8 8
19 21 18 12 11 11 6 10 5 10 8 4 9 15 18 17 17 16 17 17 16 17 16 15 15 15 14 13 11 10 8 8 7 6 6 6 5 1 2 4 6 6 5 5 3 2 5 6 8
Wind_Direction
158 138 124 232 339 186 51 67 41 70 77 80 75 23 68 39 31 99 131 132 138 141 153 148 148 143 142 138 134 134 132 132 132 137 131 112 106 111 118 119 110 123 148 147 145 141 137 147 143
131 197 228 233 172 51 76 19 63 63 70 92 77 81 84 65 76 120 126 136 138 144 142 152 151 146 142 138 133 128 128 130 129 131 123 113 107 98 113 128 110 116 129 152 155 148 135 138 137
180 234 265 256 6 65 66 232 76 65 64 126 114 39 36 74 116 125 134 137 139 137 145 163 150 148 143 135 128 126 126 126 125 124 117 106 98 96 98 117 112 107 119 147 150 154 144 143 138
258 246 251 194 102 81 68 33 62 110 99 2 22 100 85 94 124 134 139 140 139 141 152 159 152 150 144 134 127 119 116 123 124 123 115 104 102 97 98 107 113 100 110 127 145 146 144 154 156
279 62 191 26 90 76 84 76 62 354 64 66 11 77 84 124 120 139 140 142 141 143 150 157 153 153 147 136 127 118 111 119 120 119 116 103 104 95 112 107 110 116 112 122 142 145 152 164 173
290 331 297 75 85 86 109 123 74 93 73 80 95 91 99 155 145 145 143 144 144 143 148 160 156 155 151 141 130 123 113 117 123 124 121 117 111 113 107 109 113 117 124 128 131 148 158 168 182
274 99 352 56 77 74 79 72 134 82 71 61 89 78 131 152 150 149 149 147 147 147 150 152 157 160 155 144 139 129 128 123 121 128 130 131 135 126 138 122 130 146 137 130 155 175 187 193 192
300 27 250 60 79 314 95 94 4 32 71 90 342 123 148 152 152 152 153 153 153 150 156 153 160 165 162 162 156 153 151 145 142 139 139 145 137 122 102 118 161 232 238 231 241 232 218 220 214
281 172 342 48 139 176 156 102 14 45 123 53 56 60 147 153 155 157 158 160 161 160 160 156 162 170 168 175 188 174 167 170 166 171 174 162 175 117 212 222 266 275 265 262 260 260 246 238 234
274 349 27 15 23 114 93 80 132 104 316 111 88 118 149 156 162 164 165 167 168 168 166 167 168 173 173 171 215 170 197 192 182 189 234 177 204 208 204 242 232 268 279 272 286 277 275 262 242
348 24 15 36 20 350 22 121 258 113 302 273 128 144 158 163 168 169 170 174 174 173 173 178 175 175 177 184 186 193 196 208 224 221 221 235 229 254 262 265 277 297 292 299 274 280 275 246 248
278 53 355 18 30 216 280 82 171 304 61 352 130 157 163 169 173 174 175 176 177 179 181 185 187 182 190 194 207 214 208 190 220 232 245 232 240 272 282 244 254 270 273 275 267 250 249 258 247
353 81 262 151 321 312 331 58 32 95 56 125 144 155 166 174 175 176 177 178 181 185 189 190 194 192 192 200 215 219 209 221 226 240 244 234 242 257 261 262 259 263 270 265 268 268 266 252 241
30 341 320 132 242 172 250 124 134 98 136 135 154 160 167 176 178 177 181 181 185 185 189 190 197 207 199 205 223 226 220 226 228 233 232 256 236 256 261 262 261 269 271 276 261 261 262 258 251
145 231 172 163 197 305 305 215 214 110 136 151 162 167 169 180 182 182 183 184 186 184 186 191 194 204 209 210 216 236 230 221 241 238 248 255 261 254 258 262 258 260 269 269 263 260 253 253 252
224 22 271 100 223 184 250 228 111 150 155 163 167 171 174 180 182 185 187 186 182 184 186 189 195 200 211 211 220 210 232 234 239 242 249 266 267 271 285 292 275 271 258 254 267 262 269 259 253
312 100 88 136 182 214 234 354 132 174 175 160 177 175 180 179 186 187 188 191 188 192 191 196 197 202 208 228 217 225 226 235 234 244 249 267 265 268 300 300 292 274 264 249 258 258 258 264 260
294 78 84 93 142 211 251 261 142 180 190 173 172 177 185 186 191 186 193 192 196 190 198 203 208 212 214 221 225 224 234 237 240 247 245 256 271 285 289 296 290 296 273 269 267 276 256 261 282
306 300 98 316 84 270 230 253 187 172 194 184 182 177 186 194 193 195 197 197 198 203 197 211 216 217 216 222 227 235 235 244 241 239 236 259 261 308 274 271 282 290 272 268 276 272 276 274 277
278 50 329 70 229 253 268 267 191 182 193 201 190 187 181 192 193 199 198 203 205 201 206 214 219 223 220 225 233 225 236 244 249 249 254 253 254 245 249 266 292 262 263 266 265 271 282 287 287
257 275 244 314 299 247 260 355 282 191 187 195 197 198 192 183 185 192 200 202 202 205 207 214 220 219 224 222 236 243 233 245 248 249 260 269 268 253 248 253 272 278 271 267 264 273 277 274 275
308 319 296 280 266 152 243 212 332 171 191 189 201 195 198 192 192 183 191 201 205 210 212 214 219 220 223 230 223 235 233 244 257 253 266 263 280 256 250 259 264 291 285 277 282 286 283 281 276
296 0 309 303 286 266 351 246 207 210 173 187 205 198 207 193 196 200 194 192 206 206 209 211 216 220 223 239 225 232 245 250 251 246 259 286 272 249 238 240 300 280 284 284 283 290 287 283 280
259 288 250 247 250 261 243 295 100 267 64 137 179 188 202 200 206 198 201 200 202 205 204 208 212 227 236 235 244 231 226 231 232 254 278 299 282 248 247 328 272 274 277 281 293 291 296 294 286
218 251 252 248 259 73 247 263 59 102 58 103 143 160 197 193 204 197 199 202 207 207 206 210 211 226 237 240 243 226 223 230 253 280 308 283 271 243 292 276 310 299 287 281 303 304 307 306 297
207 245 274 286 184 235 216 321 121 237 111 82 122 139 161 185 196 203 200 202 207 209 208 210 215 226 230 223 214 211 219 201 243 296 287 226 200 278 297 315 333 331 330 315 314 325 324 323 326
240 236 275 294 289 234 7 180 150 65 94 121 134 146 166 172 184 195 196 199 202 205 206 206 209 208 203 194 198 202 201 198 218 259 59 198 180 291 315 345 357 0 2 6 0 350 337 339 336
244 252 221 239 270 267 91 303 141 173 77 83 142 173 144 155 168 176 185 189 195 199 200 198 202 193 183 181 177 180 191 194 234 195 195 182 224 175 38 45 35 31 23 24 57 20 4 16 0
207 244 257 283 182 276 283 96 253 136 91 45 131 157 160 161 160 166 172 176 177 180 184 183 178 172 167 168 164 166 175 200 157 172 166 163 125 113 86 72 61 52 16 29 39 45 5 32 21
239 216 239 242 220 265 317 300 203 82 52 147 146 156 165 165 164 163 166 168 169 166 164 166 165 158 160 163 169 200 183 148 170 161 167 132 126 98 89 59 50 4 22 38 59 35 38 27 26
Height
1488 1488 1492 1496 1486 1484 1477 1475 1466 1471 1472 1479 1485 1485 1486 1492 1493 1513 1515 1519 1523 1528 1529 1530 1533 1535 1537 1539 1540 1541 1542 1542 1543 1546 1547 1548 1549 1550 1550 1551 1551 1552 1554 1556 1556 1557 1558 1559 1559
1492 1491 1490 1485 1504 1490 1490 1479 1477 1477 1481 1484 1487 1488 1490 1499 1503 1509 1516 1522 1526 1530 1532 1533 1534 1536 1539 1541 1542 1542 1543 1544 1545 1547 1548 1549 1550 1551 1551 1552 1553 1554 1556 1557 1558 1559 1559 1561 1561
1490 1487 1482 1465 1476 1502 1489 1482 1478 1483 1486 1485 1486 1492 1494 1506 1508 1512 1518 1523 1527 1531 1535 1534 1535 1538 1540 1542 1543 1544 1545 1546 1547 1549 1549 1551 1551 1552 1553 1554 1555 1556 1557 1557 1558 1559 1559 1561 1562
1489 1486 1477 1471 1488 1479 1486 1481 1480 1482 1487 1487 1488 1493 1506 1510 1512 1515 1520 1524 1528 1532 1535 1535 1537 1539 1541 1543 1544 1545 1546 1547 1549 1550 1551 1553 1553 1554 1555 1555 1556 1557 1558 1558 1558 1559 1560 1562 1563
1487 1483 1496 1474 1474 1477 1479 1486 1485 1483 1484 1485 1490 1494 1508 1514 1515 1519 1523 1526 1529 1532 1535 1536 1538 1541 1542 1544 1545 1546 1547 1548 1550 1551 1553 1553 1554 1555 1556 1557 1557 1558 1558 1559 1559 1560 1561 1562 1563
1485 1470 1491 1480 1477 1478 1479 1483 1483 1479 1486 1492 1491 1497 1514 1517 1517 1521 1525 1527 1530 1533 1537 1537 1539 1542 1543 1545 1546 1547 1548 1549 1551 1552 1553 1554 1555 1556 1557 1557 1558 1558 1559 1560 1561 1561 1562 1562 1563
1479 1478 1475 1490 1493 1481 1483 1485 1483 1480 1482 1490 1495 1497 1514 1516 1518 1522 1526 1529 1532 1535 1539 1540 1541 1542 1543 1546 1547 1548 1549 1550 1551 1553 1554 1555 1556 1557 1557 1557 1558 1558 1559 1560 1560 1561 1561 1561 1562
1483 1489 1497 1475 1512 1501 1486 1484 1489 1485 1490 1497 1497 1499 1510 1516 1519 1523 1527 1530 1533 1536 1539 1542 1544 1544 1545 1546 1547 1548 1549 1550 1552 1553 1554 1555 1556 1557 1558 1558 1559 1559 1559 1559 1560 1560 1561 1560 1561
1482 1505 1488 1478 1503 1488 1485 1484 1494 1493 1492 1497 1500 1499 1506 1515 1519 1523 1527 1531 1534 1536 1539 1541 1544 1545 1546 1549 1547 1548 1549 1551 1552 1553 1553 1555 1555 1556 1557 1558 1558 1559 1559 1559 1559 1559 1560 1560 1560
1476 1482 1480 1478 1476 1484 1482 1483 1491 1496 1496 1496 1502 1505 1510 1514 1519 1523 1526 1529 1533 1536 1539 1542 1543 1545 1548 1550 1548 1550 1552 1553 1553 1554 1554 1555 1556 1557 1558 1557 1557 1557 1557 1557 1558 1558 1558 1558 1559
1476 1482 1480 1482 1486 1483 1481 1482 1487 1488 1495 1492 1499 1507 1512 1514 1519 1522 1526 1529 1532 1535 1538 1541 1543 1545 1547 1549 1550 1551 1552 1553 1554 1553 1553 1554 1555 1556 1555 1557 1556 1556 1556 1556 1556 1556 1556 1556 1555
1477 1483 1486 1486 1487 1484 1480 1482 1483 1486 1488 1493 1498 1506 1511 1515 1518 1521 1524 1527 1530 1534 1537 1540 1542 1545 1547 1549 1550 1550 1550 1551 1553 1554 1551 1552 1552 1553 1554 1556 1557 1556 1556 1556 1555 1556 1555 1552 1554
1473 1480 1486 1487 1487 1485 1486 1484 1485 1485 1492 1494 1501 1506 1511 1514 1517 1519 1523 1527 1530 1533 1537 1540 1542 1543 1545 1546 1549 1549 1550 1551 1552 1552 1551 1551 1551 1553 1554 1554 1554 1554 1554 1553 1553 1552 1552 1551 1551
1476 1481 1482 1485 1485 1485 1482 1484 1488 1489 1492 1496 1502 1506 1509 1512 1516 1519 1522 1526 1529 1532 1536 1538 1541 1541 1543 1545 1546 1546 1548 1550 1550 1550 1549 1549 1551 1552 1552 1552 1552 1552 1550 1550 1549 1548 1548 1548 1549
1477 1476 1477 1481 1482 1481 1482 1484 1480 1489 1493 1497 1501 1505 1508 1512 1515 1519 1522 1525 1529 1532 1535 1538 1540 1542 1541 1543 1545 1545 1546 1548 1548 1548 1547 1546 1547 1547 1547 1547 1547 1548 1547 1546 1546 1545 1544 1545 1547
1471 1480 1479 1477 1480 1480 1484 1489 1482 1489 1492 1495 1499 1503 1508 1511 1514 1518 1521 1524 1528 1530 1534 1537 1539 1541 1542 1543 1543 1544 1546 1546 1546 1546 1545 1544 1543 1542 1541 1540 1540 1540 1541 1541 1541 1541 1542 1541 1541
1474 1485 1477 1477 1478 1477 1479 1474 1479 1487 1489 1491 1496 1500 1506 1509 1513 1517 1520 1524 1525 1530 1533 1536 1538 1540 1541 1539 1542 1542 1543 1543 1543 1543 1543 1540 1540 1540 1540 1536 1535 1534 1535 1537 1536 1536 1536 1537 1538
1484 1477 1481 1476 1473 1476 1475 1474 1472 1483 1485 1487 1491 1496 1502 1506 1510 1514 1518 1521 1524 1527 1531 1534 1536 1536 1537 1538 1537 1539 1540 1541 1541 1541 1539 1538 1540 1539 1538 1536 1533 1532 1533 1533 1533 1532 1533 1532 1534
1469 1470 1474 1470 1468 1472 1469 1469 1465 1475 1481 1482 1487 1491 1497 1502 1506 1510 1515 1518 1522 1525 1528 1531 1533 1534 1534 1535 1536 1537 1537 1537 1536 1536 1535 1534 1535 1529 1531 1533 1529 1529 1529 1530 1530 1528 1529 1529 1529
1465 1468 1486 1466 1465 1468 1466 1466 1461 1466 1473 1477 1483 1487 1490 1496 1500 1506 1511 1515 1518 1521 1525 1527 1529 1530 1531 1532 1531 1533 1536 1537 1536 1535 1532 1531 1530 1530 1528 1527 1526 1526 1527 1527 1527 1526 1526 1526 1526
1460 1470 1470 1468 1462 1461 1467 1496 1466 1463 1466 1472 1476 1482 1485 1489 1495 1502 1506 1509 1513 1515 1519 1522 1524 1525 1526 1527 1529 1529 1530 1530 1530 1529 1528 1526 1526 1526 1525 1524 1524 1524 1524 1524 1524 1523 1523 1524 1523
1468 1464 1462 1464 1468 1513 1471 1501 1464 1459 1462 1465 1471 1475 1481 1485 1490 1495 1501 1505 1508 1510 1514 1517 1519 1521 1522 1523 1525 1526 1527 1528 1529 1528 1528 1526 1524 1523 1521 1522 1522 1522 1522 1522 1522 1520 1519 1520 1521
1464 1463 1462 1460 1462 1453 1480 1476 1500 1453 1459 1459 1463 1467 1474 1479 1485 1489 1493 1498 1501 1505 1509 1513 1515 1517 1518 1519 1521 1523 1523 1527 1527 1527 1525 1523 1522 1519 1518 1520 1521 1520 1520 1519 1518 1518 1517 1517 1518
1464 1467 1459 1454 1450 1473 1499 1459 1499 1504 1452 1448 1450 1459 1466 1474 1478 1484 1489 1493 1497 1501 1506 1510 1512 1512 1514 1515 1517 1520 1523 1523 1524 1524 1523 1522 1520 1518 1518 1520 1519 1519 1519 1518 1516 1515 1513 1514 1514
1464 1469 1478 1479 1476 1509 1494 1466 1466 1446 1446 1444 1452 1459 1462 1467 1475 1479 1485 1489 1494 1497 1502 1506 1507 1508 1510 1512 1514 1517 1519 1519 1520 1520 1522 1520 1519 1520 1519 1518 1517 1516 1515 1514 1513 1513 1511 1511 1510
1461 1462 1467 1490 1485 1480 1466 1458 1459 1444 1445 1448 1454 1460 1464 1467 1471 1476 1482 1487 1491 1495 1498 1502 1504 1505 1507 1510 1513 1515 1515 1518 1521 1520 1519 1520 1520 1520 1518 1517 1515 1513 1513 1512 1512 1511 1511 1511 1510
1457 1462 1446 1454 1439 1453 1445 1455 1432 1436 1445 1448 1453 1461 1465 1468 1471 1476 1480 1485 1489 1492 1496 1500 1503 1504 1506 1509 1511 1512 1514 1515 1518 1517 1517 1519 1519 1520 1516 1515 1514 1513 1512 1512 1510 1510 1510 1509 1510
1453 1442 1465 1455 1480 1479 1474 1459 1445 1450 1442 1444 1450 1459 1464 1469 1473 1476 1480 1483 1488 1491 1495 1499 1501 1504 1506 1509 1509 1512 1513 1513 1514 1515 1517 1517 1516 1516 1515 1516 1515 1513 1512 1511 1511 1511 1510 1510 1511
1455 1458 1453 1443 1476 1463 1466 1475 1470 1436 1440 1445 1447 1456 1464 1469 1472 1476 1480 1484 1487 1490 1493 1497 1500 1502 1504 1507 1509 1510 1512 1512 1514 1517 1516 1515 1515 1514 1514 1515 1514 1513 1513 1512 1511 1511 1510 1510 1509
1443 1451 1450 1459 1467 1449 1452 1454 1422 1429 1436 1444 1447 1455 1462 1467 1472 1476 1479 1483 1486 1489 1492 1495 1498 1500 1503 1506 1508 1508 1510 1513 1516 1516 1517 1515 1515 1514 1514 1514 1515 1513 1513 1512 1512 1512 1510 1510 1509